GFSCGP_sfc_rhum_057.txt.gz
RH
24 17 19 14 14 12 14 14 14 12 19 24 18 16 13 11 12 12 12 13 12 12 12 13 14 19 29 35 37 41 46 50 50 54 57 58 58 58 69 78 70 67 74 85
24 24 15 21 19 22 19 17 15 13 22 26 19 19 16 14 14 13 12 11 11 11 11 13 15 18 25 32 37 37 37 40 43 47 51 51 53 53 58 80 87 78 84 88
18 19 21 23 25 24 21 20 16 17 25 22 26 19 12 10 13 14 13 12 12 11 11 11 15 20 26 31 36 38 38 39 42 45 48 52 52 63 71 82 90 92 91 97
22 22 28 27 21 20 19 17 20 25 26 19 22 18 11 9 8 11 12 13 12 13 14 14 15 18 26 31 34 36 38 39 42 47 49 57 64 72 67 72 84 89 95 98
22 34 35 30 22 22 23 28 26 30 31 31 24 29 14 10 14 12 10 12 12 12 14 15 18 21 21 32 38 38 37 39 41 46 50 55 62 56 58 71 83 87 92 98
28 35 29 25 34 26 33 34 32 36 33 34 21 24 14 9 8 10 11 12 12 16 18 19 22 25 26 34 41 45 40 40 42 48 52 55 60 57 62 75 83 88 90 95
30 32 34 34 37 36 31 27 27 34 50 35 32 31 18 12 11 12 13 13 12 19 20 19 22 28 31 35 42 45 43 41 43 47 52 56 57 56 59 69 77 86 89 93
28 31 33 34 28 30 37 25 27 42 35 26 50 35 16 15 13 15 17 17 19 21 24 26 24 26 33 40 43 44 44 44 43 47 53 55 56 54 56 62 69 79 81 83
21 27 30 34 26 21 34 42 25 37 82 46 20 15 11 23 22 17 15 17 17 19 22 24 25 26 30 37 43 45 46 47 47 49 52 56 56 58 58 63 66 70 72 71
23 29 40 40 37 33 32 23 38 35 80 55 21 20 17 19 14 16 19 19 21 24 28 27 25 29 32 35 40 44 45 47 50 50 55 58 57 59 61 62 69 70 70 70
27 32 49 45 42 32 38 36 37 30 37 43 39 21 11 13 15 15 22 26 25 26 27 29 29 32 35 39 44 45 48 50 53 55 59 63 63 62 63 66 67 69 71 70
35 36 44 36 37 39 29 27 30 40 52 39 43 32 20 15 17 26 22 24 25 27 26 27 29 31 34 40 44 48 48 53 56 56 61 65 63 65 67 68 68 69 70 69
49 74 87 57 46 46 45 34 35 30 49 63 61 33 17 16 20 20 24 25 25 28 28 25 25 24 25 28 38 42 46 50 58 58 65 65 68 67 69 69 69 69 68 66
77 96 97 71 44 39 44 39 35 38 54 49 42 29 20 19 20 19 24 28 25 26 27 21 27 22 22 25 28 34 39 44 58 62 67 71 69 68 66 67 69 70 67 66
76 100 92 70 56 50 52 45 41 45 42 49 39 34 26 23 22 22 20 22 23 23 23 23 25 32 28 27 33 33 34 41 49 63 69 70 73 68 66 73 76 74 72 66
74 96 71 89 60 56 64 52 46 44 43 40 36 35 24 23 24 25 25 26 26 27 26 26 26 26 32 30 31 34 36 41 52 59 70 66 75 83 85 85 83 78 77 72
92 100 100 96 69 74 97 89 57 52 48 46 51 39 33 32 29 29 28 29 30 29 28 29 29 31 34 34 38 38 38 47 68 78 93 95 91 93 90 86 82 79 75 69
85 92 100 98 99 98 65 41 44 52 47 42 44 43 38 36 33 36 33 35 34 33 32 31 33 32 34 44 47 45 64 66 84 97 100 100 95 94 90 85 82 78 74 72
65 75 92 96 87 64 48 42 48 64 56 42 44 42 38 37 39 37 32 33 34 34 35 39 50 52 47 50 54 67 76 82 87 91 96 98 95 96 90 90 84 79 79 78
61 66 79 80 91 82 41 34 32 34 65 43 58 53 47 42 57 44 38 44 49 46 54 61 66 56 53 51 55 73 78 84 84 84 87 91 97 97 94 90 89 89 87 84
86 90 96 91 88 73 66 49 43 80 80 98 73 68 66 62 51 53 54 52 57 64 66 62 56 49 53 59 76 78 79 83 87 91 91 94 95 95 92 91 90 88 87 87
68 88 93 86 94 90 77 67 68 68 77 70 62 61 71 69 63 61 53 60 61 65 66 64 60 58 54 74 86 83 80 85 91 91 92 94 95 93 93 92 91 90 91 92
70 58 71 86 86 88 76 80 70 82 81 63 62 59 59 68 60 57 59 58 66 70 65 69 77 74 76 88 90 85 87 89 92 93 96 95 95 94 93 93 94 92 91 90
56 77 75 73 64 77 78 69 60 52 54 52 49 55 63 72 66 66 71 69 66 84 86 88 89 92 94 92 90 90 90 90 92 95 95 94 91 93 93 90 88 90 89 91
57 71 76 75 64 70 66 62 57 59 60 61 60 64 63 68 66 62 62 87 87 86 89 92 90 90 93 91 95 96 96 92 93 94 93 93 91 90 90 89 89 89 94 90
46 50 58 68 54 58 50 44 46 74 82 78 67 60 59 76 73 69 73 85 86 90 91 92 90 90 92 92 95 95 97 94 92 94 91 88 89 88 90 92 96 91 93 92

GFSCGP_sfc_rhum_060.txt.gz
RH
34 31 31 23 21 19 23 22 23 21 29 35 31 28 22 18 18 21 22 21 20 18 18 18 22 30 41 54 60 65 76 77 75 83 85 90 84 92 92 73 84 81 92 95
35 35 22 28 28 25 31 28 26 21 29 35 31 28 23 20 19 19 19 19 18 19 18 18 23 29 39 46 60 66 67 72 71 72 74 80 83 83 86 93 93 91 91 94
36 34 24 28 34 33 32 31 27 26 34 32 40 35 29 22 18 18 18 16 17 18 18 18 25 30 38 47 55 55 58 64 66 67 72 77 78 85 88 94 92 95 94 95
35 30 32 36 31 28 31 26 26 31 37 36 42 46 25 15 14 19 22 25 23 21 21 20 22 34 38 38 50 54 54 55 56 61 66 71 69 80 90 92 94 93 96 96
36 41 41 40 31 26 36 36 34 39 47 55 41 52 31 19 17 16 16 18 23 29 25 24 24 26 36 45 52 55 57 56 56 56 61 72 79 86 90 92 93 93 96 97
45 45 40 36 41 39 38 43 43 50 48 63 38 34 26 18 17 15 17 19 24 30 30 31 31 35 41 53 58 60 57 58 59 62 64 72 79 86 86 93 96 95 96 98
42 44 45 42 46 44 47 39 50 67 81 58 42 36 24 20 17 18 18 22 32 33 36 38 39 42 46 56 63 65 60 58 60 65 70 72 80 83 81 88 94 94 95 98
40 51 47 42 41 48 51 39 59 61 75 60 57 49 34 21 22 25 23 26 42 39 33 36 36 43 49 52 60 62 63 62 60 64 70 74 73 73 71 80 88 91 94 94
35 34 42 41 37 36 48 53 40 50 74 78 46 31 21 26 23 24 25 24 26 33 40 40 40 43 54 57 61 64 63 63 62 65 69 74 78 80 77 80 88 92 92 92
36 42 51 52 44 44 46 39 53 58 69 69 38 32 28 29 26 25 27 37 38 40 42 44 42 46 50 54 59 62 63 64 66 66 70 73 79 80 80 84 88 87 91 90
40 49 69 54 54 46 52 46 46 40 54 71 55 35 22 25 29 30 36 35 51 58 45 44 44 46 50 55 61 64 65 66 68 70 74 79 83 82 83 86 88 89 88 90
47 51 62 55 50 51 47 38 41 57 59 61 69 34 26 25 31 32 33 32 34 39 39 40 42 45 49 56 63 66 68 70 72 74 76 83 83 83 86 87 87 87 90 89
61 81 89 69 64 58 58 45 41 40 59 72 72 41 21 29 29 30 35 42 35 49 49 39 38 40 40 44 56 62 66 68 74 76 81 85 87 86 88 88 87 87 89 89
72 91 88 71 70 63 59 53 46 48 76 50 51 40 30 30 30 31 32 39 38 38 36 36 38 37 35 38 43 54 58 64 74 79 84 87 87 86 88 87 88 89 90 89
81 99 92 84 74 68 77 91 76 69 68 66 47 44 34 30 30 31 32 34 34 34 33 34 35 36 41 46 46 45 47 57 68 79 85 83 88 87 87 87 88 89 89 87
82 96 92 93 80 74 78 66 64 60 56 54 54 51 33 30 30 31 29 36 36 38 37 37 38 38 40 40 44 47 50 53 67 75 81 84 87 88 88 88 88 90 89 88
96 99 100 92 80 86 97 85 72 63 56 52 54 40 39 44 42 40 39 41 38 39 38 40 43 43 44 50 54 56 57 59 71 78 88 91 89 91 91 90 91 90 90 86
98 97 99 97 98 96 61 50 56 59 53 52 51 50 46 45 41 42 46 46 41 40 40 42 45 55 63 64 66 67 75 73 76 93 98 99 94 96 96 94 92 89 89 88
77 86 98 98 95 74 56 44 54 63 57 49 50 46 44 53 60 49 54 62 61 61 62 70 76 70 67 68 69 78 79 82 86 92 97 99 97 97 95 94 94 93 91 92
65 70 81 79 92 83 30 30 37 47 73 65 68 70 70 72 74 56 70 69 68 67 74 77 79 70 66 66 70 79 81 87 88 88 90 95 98 96 96 95 94 95 94 90
95 93 92 89 91 84 63 49 57 76 68 92 77 71 75 73 66 66 69 63 68 73 74 79 76 69 64 71 83 82 84 92 96 96 97 98 98 97 95 95 96 95 93 91
65 87 93 93 95 89 78 75 77 69 82 82 81 75 71 75 71 76 75 75 73 73 74 78 76 76 70 84 94 93 94 95 97 96 97 98 98 98 96 95 96 95 95 94
80 62 87 84 84 84 86 79 80 80 79 76 67 66 69 73 76 75 76 72 78 79 81 78 88 84 89 94 95 93 96 96 96 97 98 98 97 96 96 96 96 96 95 96
75 77 86 79 66 62 78 78 79 70 66 66 65 66 69 77 82 83 80 80 82 86 87 92 94 93 96 97 95 96 96 95 96 98 98 93 92 97 97 96 95 95 96 97
81 78 85 84 75 81 76 74 62 64 59 64 69 72 80 74 70 70 78 83 81 82 95 96 95 95 96 96 97 98 96 94 95 97 94 93 91 94 97 97 97 97 98 94
62 61 68 68 62 71 62 58 52 59 66 65 73 75 74 78 83 82 87 85 87 95 97 97 97 96 97 97 97 97 99 94 93 96 96 94 92 93 96 91 98 89 90 87

GFSCGP_sfc_rhum_063.txt.gz
RH
37 35 37 30 28 24 26 29 32 36 33 34 34 35 31 26 26 27 30 30 28 24 21 22 24 32 56 66 79 82 89 90 88 87 90 96 88 95 95 96 88 91 94 95
35 33 28 27 28 27 31 36 34 34 36 34 32 29 28 26 21 22 19 26 26 26 22 21 25 33 46 55 63 77 86 90 87 86 86 85 93 95 93 93 92 90 95 95
39 32 27 30 36 30 36 34 34 31 36 35 50 34 29 24 30 25 23 23 23 22 22 22 23 31 40 54 64 70 79 85 82 85 93 88 90 90 91 94 95 94 94 96
41 35 32 38 34 30 36 36 30 35 36 34 42 40 40 19 14 16 19 24 25 25 24 22 22 34 41 40 50 64 78 86 80 86 84 83 81 84 77 83 92 96 96 98
38 39 40 40 33 30 34 40 36 41 49 61 62 46 38 33 20 16 15 19 27 34 28 26 26 31 41 48 63 71 72 77 78 77 77 80 80 87 92 94 94 95 97 97
45 47 42 37 47 41 41 42 44 56 54 59 47 36 35 20 16 19 20 29 33 40 37 34 38 40 48 56 60 69 68 69 71 75 79 79 79 90 93 94 96 98 97 97
53 48 51 44 45 44 43 36 46 58 78 52 51 47 30 22 19 20 18 24 53 54 42 38 54 38 54 64 65 66 68 69 71 75 78 82 85 87 86 89 92 97 97 97
53 47 47 44 41 46 50 36 52 54 75 56 55 50 28 26 22 24 25 30 37 39 36 39 40 42 50 58 69 70 68 66 68 74 77 83 84 88 84 86 92 93 93 92
43 40 50 50 43 35 49 54 42 53 83 76 47 38 24 26 21 22 22 27 42 46 43 44 44 52 56 58 62 65 67 69 68 69 76 80 85 84 85 89 90 93 92 94
40 46 58 55 46 49 43 41 54 67 59 65 46 37 34 26 19 19 33 41 41 45 46 49 53 54 58 64 63 70 69 66 69 70 74 74 76 81 83 89 87 92 93 95
42 51 66 56 55 51 51 49 48 46 63 62 63 37 27 22 28 36 41 40 41 43 45 47 48 51 53 57 63 66 70 71 72 73 75 80 81 84 88 86 86 89 92 94
53 55 78 54 53 53 49 45 48 61 57 66 68 34 31 36 38 37 34 37 44 44 43 45 45 48 51 55 59 65 68 73 74 75 78 81 84 86 88 88 90 90 91 93
59 83 86 70 64 63 60 52 42 48 67 65 70 39 29 35 32 34 36 36 35 49 57 40 45 45 47 50 56 61 68 69 74 77 81 84 86 89 87 87 90 90 91 93
73 88 78 71 70 68 73 81 68 50 72 56 56 37 30 30 35 37 36 37 43 39 37 39 40 40 44 42 44 50 59 66 71 79 84 85 84 87 87 90 90 91 92 93
80 99 94 79 72 80 87 89 89 95 82 90 59 70 47 46 40 35 38 36 37 41 41 41 42 44 43 44 48 51 53 58 64 75 84 81 85 89 90 91 91 91 92 94
86 99 96 98 88 85 98 79 80 86 78 68 60 62 42 39 38 40 38 44 48 47 46 46 44 45 47 46 51 57 59 62 64 73 80 81 87 90 90 90 90 91 93 94
96 99 99 93 89 93 97 84 79 70 61 54 63 52 44 45 44 56 51 51 54 60 59 60 63 62 66 69 68 69 71 75 76 77 83 89 90 92 91 91 91 92 94 92
95 98 99 98 94 96 63 59 67 67 61 57 54 51 50 52 61 61 63 69 65 64 64 65 70 69 71 72 75 73 81 83 83 86 97 98 98 95 96 97 96 93 93 94
86 87 100 98 97 78 66 59 54 56 42 31 34 35 58 65 66 72 70 70 70 67 67 72 76 75 70 71 71 80 82 83 85 86 90 99 100 98 98 98 97 96 95 95
92 86 90 98 98 95 52 45 45 48 63 76 66 68 73 73 73 73 61 66 71 70 71 74 77 78 75 70 73 80 81 88 86 89 90 92 99 98 98 96 96 96 95 92
92 88 88 85 90 83 63 60 49 72 55 86 82 78 79 74 67 58 65 66 76 76 74 76 83 78 76 72 82 84 85 88 95 97 98 98 98 98 97 97 97 96 96 93
87 92 93 84 93 91 68 78 71 69 82 82 81 79 74 70 70 75 74 80 80 81 82 78 82 80 78 81 95 89 92 92 98 98 98 99 99 98 98 95 97 96 95 94
70 72 82 81 79 66 85 78 80 80 75 76 68 69 69 71 73 66 75 81 75 81 85 84 85 83 82 94 96 94 92 97 98 98 100 99 98 98 97 95 97 97 96 94
81 86 80 69 64 75 79 80 74 77 72 72 74 72 71 74 75 82 85 75 75 84 86 90 91 89 88 97 96 95 97 97 98 99 98 97 98 98 98 98 97 96 97 95
74 78 83 84 78 80 74 67 66 65 62 63 64 74 73 75 81 83 82 88 87 88 88 95 93 92 92 98 98 99 97 96 97 97 97 97 97 98 98 97 97 98 97 92
70 68 81 84 68 71 64 60 61 64 64 60 65 70 72 83 83 84 88 87 89 85 90 97 97 97 97 98 98 98 99 96 96 98 97 98 98 99 98 98 99 98 92 85

GFSCGP_sfc_rhum_069.txt.gz
RH
41 33 30 30 27 21 28 31 30 36 38 39 39 38 32 28 34 30 30 29 30 29 24 26 28 40 74 86 91 89 91 91 94 97 98 98 97 97 98 98 96 94 92 91
35 36 28 28 31 30 33 34 44 36 40 40 38 34 31 29 28 26 24 24 26 28 30 28 30 32 50 64 78 86 87 90 92 86 90 91 94 95 95 98 98 96 95 92
30 28 29 30 35 30 37 35 36 30 39 36 36 25 23 21 33 28 26 28 27 27 26 27 28 31 37 53 75 82 81 88 89 86 95 98 97 96 98 98 98 97 97 97
32 37 33 37 37 31 37 32 32 37 34 32 43 27 32 28 27 24 18 19 20 21 28 30 30 30 33 39 60 74 85 87 91 92 96 94 92 94 93 90 96 97 95 96
36 40 38 40 33 31 34 39 36 44 50 60 53 38 30 33 24 18 18 28 37 38 37 41 43 37 40 43 56 86 92 94 94 95 93 96 95 95 96 96 95 96 97 96
46 51 42 35 53 39 45 41 46 67 50 47 46 35 27 21 20 38 27 32 35 37 39 40 44 46 55 66 78 88 94 97 97 98 97 97 96 97 98 96 97 97 97 98
54 53 55 48 47 47 38 31 40 43 63 46 55 52 33 27 26 25 24 28 38 48 51 52 52 49 54 67 72 81 88 91 96 97 97 96 96 96 96 95 95 96 96 97
55 56 51 48 42 46 41 31 44 41 56 42 57 54 29 30 32 34 38 58 56 53 56 59 59 59 59 62 72 71 75 79 85 92 95 95 94 96 95 95 95 94 93 92
50 42 55 54 49 40 50 42 36 58 93 74 45 37 23 29 32 44 45 46 49 49 54 57 59 61 59 58 61 65 67 69 73 76 84 87 92 94 94 93 94 93 93 94
39 44 64 58 49 53 46 44 53 64 52 55 42 42 27 26 47 50 46 46 47 48 48 49 53 55 58 62 66 66 68 66 66 72 77 79 84 88 91 92 92 92 92 94
40 48 68 59 57 54 51 51 52 48 54 57 61 35 30 31 46 45 46 42 45 47 47 47 49 51 53 56 58 63 64 67 68 71 74 77 80 83 87 91 90 91 92 94
47 53 80 64 61 62 64 50 48 55 59 72 64 46 39 44 45 44 42 41 45 59 44 48 49 50 49 51 54 57 59 64 67 70 74 77 79 82 85 87 87 90 92 93
53 70 85 70 62 70 62 53 50 53 66 67 67 52 40 49 48 49 46 56 41 49 48 51 53 56 57 55 57 58 60 64 70 72 76 77 78 80 82 84 86 88 91 92
62 73 61 56 60 58 62 61 56 49 73 54 54 43 46 46 53 58 56 55 54 54 58 62 68 70 69 66 66 68 68 72 76 75 76 78 80 82 83 86 88 89 90 92
66 85 82 89 87 83 87 82 85 57 45 56 47 44 40 45 57 54 53 55 65 68 68 70 71 73 73 72 75 74 75 77 79 77 78 76 81 83 85 87 88 90 92 92
80 99 94 95 89 88 88 88 91 95 95 93 92 84 62 56 56 51 55 70 71 72 68 68 69 70 69 68 70 69 74 76 78 76 79 78 85 89 90 90 89 90 91 92
89 99 98 98 95 98 98 88 88 88 89 82 84 61 58 60 63 74 77 64 64 68 68 68 70 71 73 74 76 71 71 77 84 86 85 86 87 91 92 93 93 93 92 92
95 98 99 98 99 96 70 70 71 68 66 70 69 70 67 69 70 69 64 64 64 66 68 71 73 74 75 79 79 82 83 83 82 82 88 92 90 92 94 94 94 94 94 96
91 97 98 97 96 79 66 65 82 84 74 70 68 63 72 74 76 84 72 73 75 75 74 77 80 82 82 84 84 86 82 84 83 81 81 84 91 93 99 99 97 97 98 98
90 87 91 97 96 95 66 58 50 45 69 62 55 76 73 70 76 74 82 72 68 70 79 80 80 84 86 84 87 88 84 85 82 81 80 87 93 96 97 98 98 97 97 96
99 99 97 98 96 86 72 57 46 60 54 88 78 76 75 72 68 60 68 67 76 77 81 80 85 87 86 87 88 88 87 85 85 88 90 94 95 97 97 98 98 97 97 97
90 93 97 96 97 90 65 64 54 56 86 83 76 74 75 79 79 75 73 74 73 78 82 81 88 89 87 88 94 91 91 85 90 91 94 95 98 99 97 99 98 97 98 97
81 77 84 82 80 66 76 76 78 81 82 81 73 75 74 73 72 66 75 77 77 80 83 84 91 91 87 92 96 94 87 92 91 92 92 95 95 98 97 98 97 98 98 99
85 88 84 77 77 86 74 86 81 76 74 67 62 68 69 66 65 70 75 77 83 91 90 92 94 91 89 88 94 94 93 95 99 99 96 95 98 98 97 98 98 97 98 96
68 78 80 81 82 84 82 85 62 56 51 57 66 70 68 68 65 71 78 86 91 93 95 96 94 92 91 90 90 92 94 93 99 99 97 97 98 99 98 97 97 97 96 96
72 66 64 70 67 64 68 64 59 61 66 64 68 69 69 73 76 82 88 93 94 93 94 91 91 94 88 92 92 91 95 96 98 97 97 92 93 99 99 98 97 95 97 94

GFSCGP_sfc_rhum_072.txt.gz
RH
41 29 34 31 21 16 27 27 39 53 42 42 40 39 33 30 34 32 30 30 31 30 27 27 28 48 84 92 94 93 95 94 96 98 98 98 97 96 99 99 97 92 93 88
36 33 26 30 28 30 31 32 40 37 42 49 45 36 33 31 29 28 27 26 27 28 28 27 31 34 59 73 87 90 91 93 94 92 93 95 90 91 94 97 97 95 95 93
31 29 30 29 34 30 36 32 35 29 40 40 36 22 21 21 30 27 26 29 26 25 25 28 29 33 38 53 84 87 88 90 91 89 97 98 98 97 99 99 99 98 96 95
27 36 31 36 34 27 30 32 31 38 36 33 48 23 27 26 26 24 21 31 40 43 42 46 42 41 35 37 51 84 89 92 93 93 96 95 93 91 90 93 97 98 98 95
32 39 39 38 32 30 33 39 38 43 52 59 50 34 25 27 20 20 33 37 43 44 44 46 49 55 64 65 53 70 87 92 96 95 94 96 96 96 96 97 96 97 98 96
50 61 40 37 51 41 49 40 45 62 48 42 44 34 24 19 20 23 27 30 41 51 54 55 56 55 64 73 85 86 91 96 97 98 97 97 97 97 99 98 98 98 98 98
55 54 65 48 47 46 37 30 39 42 60 42 57 50 29 25 25 27 32 40 55 59 60 60 60 60 63 74 76 86 93 97 99 99 98 98 97 97 97 97 97 98 98 98
56 55 52 47 42 47 37 30 42 39 53 39 63 51 29 34 33 37 51 65 55 58 64 65 65 64 66 67 73 75 77 79 90 96 97 97 97 98 98 97 97 97 97 96
47 42 57 53 49 39 44 38 36 62 96 71 44 38 24 39 50 51 49 49 52 56 58 59 59 62 65 67 70 71 69 70 73 77 82 85 90 94 96 95 96 97 95 95
39 45 65 60 49 50 49 42 48 60 53 52 38 42 26 46 55 52 48 49 50 53 52 54 55 56 59 62 65 65 67 69 72 73 76 79 82 85 89 91 92 93 93 93
38 50 68 59 58 54 52 49 51 46 51 55 57 34 34 50 50 48 50 54 49 51 52 54 55 57 59 61 63 64 66 68 72 74 76 78 80 81 85 88 89 90 90 92
44 57 77 61 61 62 64 49 46 51 57 72 62 43 48 47 50 47 46 46 52 53 55 58 62 65 65 66 68 70 72 74 78 77 77 78 79 82 83 83 83 86 88 89
51 66 86 70 65 69 67 61 52 54 65 72 65 52 49 60 55 54 48 46 48 57 64 71 74 74 73 72 72 72 74 74 76 74 74 71 73 76 79 83 86 88 88 90
54 66 56 44 53 62 62 57 54 42 64 51 55 50 50 51 56 63 59 57 62 71 72 75 77 78 77 76 76 74 73 75 75 73 75 76 75 76 76 77 79 82 86 90
58 74 77 89 75 63 64 62 61 54 38 45 43 44 42 43 50 57 58 64 72 72 70 71 71 73 74 75 76 76 76 77 77 76 78 77 81 80 82 85 86 88 89 87
79 98 89 96 91 88 86 80 72 68 85 82 86 70 58 54 59 61 69 73 71 71 70 69 69 70 71 73 76 74 76 79 82 81 81 81 84 86 88 89 90 91 90 91
90 97 94 96 97 89 86 86 90 89 90 70 72 52 68 61 58 67 78 66 68 69 71 72 73 74 76 80 82 82 83 84 86 86 88 90 88 89 88 90 91 90 91 92
96 98 99 99 98 98 73 69 79 79 82 79 73 67 64 66 70 71 62 63 64 68 74 75 76 78 79 84 84 84 84 84 85 84 88 92 91 90 92 97 96 92 94 94
84 97 98 97 98 80 74 64 83 79 70 71 74 76 71 72 78 79 68 66 68 76 76 79 81 82 84 85 89 88 84 85 83 81 82 83 86 88 89 90 93 96 97 97
92 83 83 98 97 96 68 58 71 50 68 72 74 72 76 76 76 80 80 71 68 73 78 82 83 84 84 86 88 87 85 87 84 84 84 85 88 90 91 90 92 97 97 95
99 99 98 97 96 86 73 53 46 63 62 86 79 77 79 72 67 70 68 75 77 76 80 83 84 84 86 87 87 87 88 87 87 90 89 89 90 92 94 95 97 96 96 95
94 96 98 98 97 91 67 65 49 54 87 83 79 76 73 74 71 63 71 73 72 73 76 82 84 85 85 88 95 92 92 87 92 92 93 91 91 93 98 98 97 96 98 98
90 81 88 84 85 71 73 74 76 82 80 78 75 70 66 64 63 62 66 74 73 74 81 84 91 91 88 91 95 94 88 93 94 97 95 93 92 93 98 100 98 98 98 99
88 88 82 76 76 89 82 87 79 75 76 65 59 57 61 62 72 74 68 70 76 88 92 93 94 93 91 88 93 93 91 93 96 95 97 97 96 93 96 96 98 99 98 98
78 80 85 84 84 88 81 85 74 58 54 57 60 61 62 67 66 67 74 89 92 94 95 96 96 93 88 88 86 89 92 95 96 94 93 91 90 95 96 96 96 96 95 94
70 69 70 75 67 76 73 73 50 51 56 60 63 67 70 74 80 86 95 95 94 96 95 92 92 93 90 92 88 83 96 97 98 97 94 92 90 90 92 96 96 86 86 85

GFSCGP_sfc_rhum_075.txt.gz
RH
42 33 35 28 19 18 25 20 24 34 41 41 39 37 32 30 31 28 27 27 27 28 26 27 29 38 77 86 87 86 90 91 91 92 94 96 96 94 94 93 91 90 85 83
33 33 29 30 28 26 27 30 35 42 43 40 44 34 31 30 30 30 27 26 27 27 25 25 26 33 48 70 83 87 87 89 90 87 82 83 84 89 88 93 95 88 88 88
31 31 32 30 34 30 38 29 34 28 38 37 32 20 18 22 27 26 25 27 28 27 29 39 39 33 40 49 78 85 86 88 87 87 91 95 94 95 98 99 95 95 92 90
28 39 31 34 33 29 33 30 32 37 33 25 36 17 24 26 23 29 40 42 42 43 44 46 50 52 56 47 46 75 88 90 92 92 94 89 87 89 83 83 90 93 94 95
33 37 38 36 28 25 31 37 39 43 50 46 41 29 22 24 22 30 29 35 44 50 51 52 51 57 63 73 67 55 78 90 94 92 91 94 92 90 91 91 92 94 96 97
53 50 40 36 49 42 50 40 41 55 44 39 43 32 21 18 21 26 27 39 52 54 56 56 58 62 67 73 84 89 84 91 94 96 95 94 95 94 96 95 94 93 91 92
55 55 57 50 49 46 37 30 41 46 56 40 51 46 26 23 26 30 31 50 56 62 63 63 63 62 66 72 75 83 90 99 98 97 97 96 95 94 94 93 93 94 92 92
54 53 52 49 45 48 37 30 42 38 51 38 63 47 28 34 39 38 52 56 61 61 62 63 64 65 67 71 71 68 70 74 80 88 91 93 93 94 93 94 92 93 92 90
45 40 58 54 51 40 41 35 36 63 94 64 45 38 25 52 52 52 53 55 56 57 57 57 58 60 62 65 69 69 67 68 69 70 71 72 73 77 81 85 88 89 90 92
40 50 64 59 50 49 41 39 42 54 54 50 34 39 28 51 54 54 54 53 54 55 56 59 60 62 63 66 68 68 68 70 72 71 72 72 73 74 75 77 79 81 82 83
38 52 70 59 54 52 45 44 48 41 46 52 54 31 33 42 50 50 52 54 54 56 59 63 66 68 70 71 71 69 68 68 68 70 72 73 73 73 73 75 76 78 81 80
42 61 78 63 62 62 55 43 40 46 54 65 58 35 43 50 49 51 51 52 56 59 67 71 71 71 70 71 71 71 70 69 72 71 70 72 71 73 73 73 75 80 79 82
47 66 88 65 56 64 61 56 46 49 62 71 59 42 56 57 54 50 52 54 59 71 76 76 75 74 73 72 72 70 71 71 73 71 72 70 72 69 70 72 75 77 80 80
48 61 54 38 46 61 64 59 53 39 56 56 50 58 59 57 58 56 51 57 75 76 74 74 74 73 72 72 71 70 69 70 74 70 70 74 75 72 69 71 73 75 76 78
48 63 61 85 64 62 62 60 57 45 31 38 40 51 47 50 54 57 54 64 73 71 70 68 70 71 70 71 73 72 72 74 75 72 73 74 78 74 75 78 81 83 84 78
80 91 87 97 91 84 67 62 54 42 50 66 54 44 45 41 51 58 60 73 75 71 69 68 69 70 73 74 75 75 76 77 78 77 78 77 82 84 85 85 85 86 84 84
84 93 88 93 95 81 80 72 60 58 74 48 62 44 68 65 51 66 75 76 72 70 69 69 70 72 76 77 80 77 77 81 82 83 87 88 87 89 87 86 88 88 85 87
89 92 96 99 94 95 60 76 63 53 66 67 65 62 62 62 70 75 72 70 69 71 73 72 74 74 78 80 81 83 83 83 85 90 91 92 88 88 88 88 87 86 86 91
88 95 98 98 95 82 75 72 87 74 66 73 70 71 75 76 68 71 65 64 68 69 75 78 77 78 78 82 85 82 77 82 80 84 86 88 90 90 88 91 90 88 92 93
97 91 81 98 97 91 74 61 76 56 70 66 74 74 78 71 75 69 69 67 67 68 79 80 77 77 73 82 82 78 79 85 79 84 85 87 90 92 90 89 92 92 96 94
99 100 98 98 97 87 76 64 65 66 65 88 81 77 78 67 65 74 70 67 66 70 75 80 81 76 78 84 85 82 86 83 86 92 90 90 91 93 92 97 95 93 95 94
96 98 98 98 97 93 63 57 61 62 87 84 82 80 74 77 70 63 62 64 63 66 72 79 80 81 83 89 94 93 90 85 92 92 93 92 94 93 92 98 98 95 97 97
93 85 93 88 89 74 70 66 67 79 80 77 75 75 76 71 58 56 60 62 64 70 74 84 91 92 86 93 94 93 86 92 91 94 91 92 95 96 92 95 98 96 98 98
88 88 87 81 84 90 85 84 80 76 76 72 69 67 61 60 62 63 63 63 68 88 91 95 95 95 91 91 91 94 91 89 94 95 92 89 90 90 89 90 93 98 97 96
83 82 86 87 82 90 87 85 76 73 65 62 61 61 62 63 65 59 70 89 92 95 96 96 96 94 91 90 91 94 91 92 95 95 93 93 87 90 86 81 84 95 92 94
76 73 71 74 66 73 76 79 61 62 63 66 66 68 67 63 68 80 93 96 96 91 94 95 95 92 86 90 87 89 90 92 98 96 93 91 89 86 84 84 86 82 83 81